Wind_Speed
3 6 7 5 4 4 5 3 5 7 11 10 17 14 11 6 8 11 8 10 12 9 10 7 6 5 3 4 3 3 4 5 6 7 8 10 11 11 10 10 10 10 10
6 5 7 6 8 8 3 6 6 8 11 11 12 8 11 7 12 15 21 3 4 1 10 9 8 7 2 1 2 1 2 5 6 8 8 7 7 8 9 9 10 10 10
7 7 6 5 5 5 8 8 10 9 12 10 12 6 1 8 10 13 11 3 8 14 8 9 9 8 6 3 1 1 2 3 4 6 6 8 9 10 10 10 11 11 11
8 7 8 8 8 6 3 10 10 11 11 12 9 10 10 4 13 16 18 7 5 8 1 11 9 9 6 5 4 2 2 2 3 5 6 8 8 9 10 10 11 11 12
8 8 7 9 10 13 7 9 10 10 9 15 15 13 12 10 10 11 17 21 18 10 8 8 6 8 9 6 6 5 4 5 4 5 6 7 8 9 9 10 11 11 12
7 9 9 10 10 11 11 9 5 8 10 12 9 10 16 11 12 11 14 16 17 16 18 3 5 7 12 10 9 9 6 7 7 7 6 6 6 6 8 9 9 10 11
8 7 8 9 10 10 12 13 8 9 11 13 13 10 12 15 14 16 13 14 22 15 6 4 3 7 10 7 13 11 9 7 8 8 8 7 7 8 8 8 7 6 7
10 10 9 10 12 11 12 11 11 11 12 13 12 10 9 12 11 14 14 15 7 14 10 3 4 8 5 8 7 12 8 7 9 8 9 9 9 9 9 9 8 6 5
8 10 12 11 11 14 15 15 15 12 12 10 12 11 11 11 12 11 12 7 8 9 9 7 3 4 4 4 10 11 10 9 11 9 10 10 10 9 9 9 8 7 6
7 11 13 15 15 14 15 15 15 15 14 10 13 13 14 13 14 8 8 5 1 8 7 9 12 5 7 8 9 10 12 13 14 11 10 10 10 9 9 8 8 8 8
9 10 11 12 14 15 16 17 17 18 16 15 15 14 16 15 14 15 12 10 8 7 10 8 17 12 14 11 8 9 14 13 17 13 12 11 11 11 11 11 12 11 11
14 16 17 18 19 18 15 17 18 18 19 18 18 16 15 18 17 18 17 14 15 13 14 21 14 16 13 9 10 10 14 17 17 19 17 15 14 15 15 14 13 11 10
14 18 21 21 24 26 26 22 22 20 19 19 20 20 20 19 19 19 20 20 18 15 17 18 21 18 21 19 20 20 17 20 21 25 20 19 18 18 18 16 15 13 11
27 19 22 27 27 29 30 31 27 25 23 22 20 20 20 21 22 22 22 25 25 25 24 27 26 23 22 23 22 20 15 26 26 19 23 22 20 21 21 20 18 16 14
28 25 22 24 29 32 32 34 33 28 27 25 25 22 23 23 24 25 25 26 27 31 36 37 34 28 30 30 26 20 26 22 23 23 29 24 23 22 21 22 21 20 19
23 26 26 26 27 29 32 32 36 34 31 30 29 28 26 23 25 27 28 30 33 38 44 43 36 32 30 29 28 25 24 24 32 28 27 27 27 23 24 27 26 26 24
23 32 28 27 28 30 31 31 33 35 36 33 34 32 28 27 27 28 29 33 35 40 40 35 28 32 32 31 30 30 22 22 28 27 29 28 29 32 29 29 29 29 30
24 25 27 28 27 29 32 34 33 35 37 36 30 32 32 34 33 32 35 33 38 35 36 35 30 34 36 32 30 28 23 19 21 23 25 27 25 27 30 29 35 34 31
22 23 24 26 29 30 31 34 31 31 31 33 34 33 34 36 37 35 38 39 33 31 35 30 28 29 33 34 34 32 31 24 24 24 22 22 21 23 23 25 27 35 37
27 28 29 31 32 31 31 33 31 27 29 29 30 31 33 35 38 39 32 24 22 28 25 22 23 17 19 29 15 20 15 14 14 15 17 18 18 19 20 22 24 27 31
37 37 38 40 41 41 38 35 34 29 29 28 27 31 29 32 35 27 21 24 24 22 15 18 16 7 5 10 14 11 13 11 10 12 11 10 13 17 19 24 22 26 27
44 46 46 46 46 43 40 38 37 34 31 29 28 30 27 29 24 15 16 20 22 17 15 12 11 9 8 8 5 9 21 19 17 18 20 18 20 20 26 25 21 25 26
52 48 42 40 39 36 36 36 36 35 31 30 29 29 28 25 18 16 15 16 16 14 9 9 11 13 14 15 14 15 11 10 9 9 11 14 14 16 18 10 14 14 12
46 45 43 39 37 34 31 33 35 35 35 33 30 29 24 19 16 16 14 12 10 9 8 8 9 8 8 8 10 10 12 10 8 11 10 10 10 9 9 11 13 14 13
46 44 44 40 39 34 29 29 34 34 36 32 29 28 23 20 18 18 16 13 10 8 7 6 5 5 5 5 6 8 11 13 14 13 14 16 16 14 17 19 19 18 19
45 44 42 38 35 28 29 28 29 34 36 34 30 27 23 23 22 20 17 16 15 14 14 13 10 9 9 7 6 8 11 12 13 13 14 17 16 16 18 20 20 21 23
Wind_Direction
301 315 306 303 295 291 339 349 348 305 328 343 331 322 293 288 265 263 225 251 237 310 285 283 293 290 306 315 315 273 242 224 221 217 213 205 201 208 209 209 219 228 235
286 283 295 321 325 302 299 302 320 310 331 337 346 348 284 250 251 254 241 143 191 205 254 237 226 221 206 331 344 308 234 234 228 220 214 208 209 218 221 220 220 224 230
275 286 298 305 280 286 277 322 338 321 320 324 332 347 9 297 284 278 265 238 272 234 298 252 229 211 173 189 144 304 253 218 226 226 214 206 203 204 214 222 223 223 226
285 291 298 291 293 296 287 325 311 300 315 326 323 314 323 321 306 285 292 257 268 259 270 266 217 214 202 211 190 235 249 248 228 227 217 210 216 218 216 223 222 226 229
296 301 300 297 295 294 314 280 298 315 299 304 311 321 319 317 295 288 306 298 277 265 240 230 266 231 212 236 242 225 238 238 232 226 219 217 215 218 222 223 227 229 229
301 299 300 298 304 305 300 299 290 308 319 308 301 321 316 298 312 302 342 318 304 317 223 217 274 261 240 243 248 230 227 238 235 230 219 216 223 222 225 229 230 232 228
305 292 289 290 295 308 308 323 340 317 323 303 314 319 290 302 299 311 333 326 284 307 303 307 301 297 248 286 258 241 239 232 234 241 239 227 226 227 224 229 232 231 237
333 337 329 319 317 311 308 315 321 321 315 301 308 320 315 300 307 315 339 344 7 301 311 275 296 313 234 256 268 218 230 244 238 242 243 239 236 226 226 223 217 221 229
329 330 331 337 328 321 321 319 316 316 302 300 300 314 320 323 311 320 334 351 274 308 313 327 30 300 254 265 236 227 235 245 250 245 239 235 233 224 217 211 205 198 194
326 325 323 324 327 322 323 318 312 313 309 297 297 310 314 319 324 326 321 346 84 335 281 297 323 288 259 252 234 236 246 250 239 245 243 231 223 211 204 188 174 169 165
329 336 338 336 326 322 323 316 315 313 313 303 295 293 303 310 313 315 317 326 330 311 293 328 319 317 320 265 255 253 256 249 231 231 232 226 215 203 187 170 159 152 142
316 318 319 321 324 323 322 312 310 310 309 306 299 294 291 296 306 305 304 314 316 320 308 319 320 299 290 289 268 263 258 248 235 228 223 215 214 203 194 187 178 169 157
297 297 304 309 311 313 314 315 310 309 307 304 299 301 301 299 296 299 301 302 302 303 301 313 309 285 281 287 291 267 256 264 257 233 226 219 210 210 206 201 197 189 182
298 300 291 290 297 299 300 302 306 307 311 306 300 294 290 289 289 291 293 294 296 299 299 304 299 290 288 284 272 274 258 286 258 236 227 219 214 214 213 213 212 209 206
279 275 290 282 280 288 291 290 292 298 300 302 299 292 291 288 287 286 287 289 295 301 301 299 290 288 284 280 269 260 268 282 257 248 207 216 219 219 220 224 226 225 223
295 279 290 283 288 291 291 287 290 291 289 292 292 293 292 292 288 286 284 284 291 299 302 304 277 274 278 272 270 264 260 250 254 238 225 219 215 220 221 222 226 232 232
270 274 283 287 291 289 288 291 292 290 288 285 286 289 290 289 292 290 286 289 291 293 298 300 278 273 275 272 267 265 260 258 224 223 233 231 223 219 228 236 230 232 234
278 280 283 287 289 287 288 289 289 289 288 282 286 288 286 294 294 291 287 290 294 291 291 290 280 276 277 269 260 258 252 228 215 218 220 224 230 231 240 241 232 233 232
281 284 288 288 288 287 285 286 290 286 284 281 282 281 286 292 293 292 293 292 284 291 292 288 280 276 277 263 250 248 243 228 217 222 222 226 233 238 243 240 240 241 238
288 289 287 286 285 285 284 284 289 285 281 282 284 288 291 293 292 297 294 291 294 293 293 288 284 273 307 235 227 237 212 225 219 208 210 220 222 231 235 238 246 246 241
293 291 290 288 285 281 277 275 279 279 276 276 281 283 285 291 291 295 303 296 296 291 291 295 283 225 231 244 199 230 245 220 205 209 222 235 254 252 253 257 251 250 250
294 292 290 286 281 275 269 266 267 270 268 268 273 275 280 285 284 288 295 297 298 303 288 290 242 244 243 224 236 241 234 234 245 257 267 256 256 265 259 254 255 253 248
289 287 284 281 278 274 266 260 258 259 264 263 260 268 271 278 269 276 284 295 304 299 283 257 262 260 261 248 247 240 226 221 232 223 244 248 247 251 249 246 231 234 229
289 287 284 279 276 270 266 257 258 255 254 259 263 263 267 261 253 264 277 278 290 296 274 258 249 239 234 232 225 202 200 221 213 212 229 230 225 241 238 243 256 257 269
289 286 284 280 274 271 264 256 252 252 255 255 259 260 265 251 249 258 261 254 256 257 237 215 215 211 199 187 178 195 216 229 235 238 240 242 244 249 250 248 248 245 247
292 288 281 277 272 264 256 252 251 253 251 247 254 254 247 244 246 251 251 238 241 238 240 243 230 226 232 228 220 230 239 246 251 247 245 246 246 240 244 250 253 251 251
Height
3212 3213 3213 3213 3213 3213 3213 3214 3215 3214 3211 3211 3208 3209 3207 3207 3209 3208 3205 3205 3202 3206 3206 3207 3206 3207 3206 3206 3206 3207 3206 3206 3207 3206 3205 3205 3205 3207 3209 3209 3210 3211 3213
3211 3212 3212 3212 3212 3212 3212 3212 3212 3210 3210 3208 3209 3207 3207 3202 3204 3201 3184 3197 3202 3201 3203 3203 3203 3202 3204 3204 3204 3205 3205 3205 3206 3205 3204 3204 3205 3206 3208 3209 3209 3210 3210
3210 3210 3211 3211 3211 3211 3211 3210 3210 3210 3208 3208 3208 3206 3206 3203 3202 3197 3195 3197 3199 3199 3202 3203 3202 3201 3199 3202 3202 3204 3205 3203 3204 3205 3203 3202 3202 3203 3205 3206 3206 3207 3207
3208 3210 3210 3210 3210 3210 3210 3211 3209 3206 3208 3206 3207 3205 3203 3200 3199 3198 3193 3191 3190 3200 3205 3206 3204 3199 3197 3200 3200 3202 3203 3203 3202 3203 3202 3200 3201 3202 3203 3204 3205 3205 3205
3209 3209 3210 3210 3210 3210 3208 3209 3208 3207 3206 3205 3205 3202 3202 3201 3198 3197 3195 3187 3177 3200 3203 3206 3204 3200 3197 3198 3199 3199 3200 3201 3201 3202 3200 3199 3199 3199 3201 3201 3202 3203 3202
3207 3208 3208 3208 3208 3209 3208 3207 3207 3207 3205 3204 3203 3201 3200 3196 3195 3197 3197 3190 3194 3193 3167 3195 3201 3198 3197 3195 3195 3197 3197 3199 3199 3200 3199 3198 3199 3199 3199 3199 3199 3200 3200
3205 3206 3206 3206 3206 3206 3206 3206 3204 3204 3204 3203 3201 3202 3198 3195 3193 3193 3194 3191 3190 3193 3194 3190 3196 3196 3194 3191 3193 3196 3196 3196 3198 3198 3198 3197 3197 3197 3197 3197 3197 3197 3198
3201 3203 3204 3204 3203 3203 3203 3203 3203 3202 3202 3200 3199 3200 3198 3194 3191 3188 3189 3186 3185 3190 3190 3187 3189 3191 3189 3189 3190 3192 3194 3194 3196 3196 3196 3195 3195 3195 3195 3194 3194 3195 3196
3201 3201 3201 3201 3202 3201 3201 3201 3200 3200 3200 3199 3196 3196 3195 3193 3190 3188 3188 3188 3187 3187 3185 3185 3185 3187 3187 3187 3188 3189 3190 3191 3193 3193 3192 3192 3192 3192 3192 3192 3192 3192 3193
3200 3200 3200 3199 3198 3199 3199 3199 3198 3197 3196 3196 3195 3193 3193 3192 3189 3188 3188 3189 3187 3185 3183 3182 3182 3184 3186 3186 3188 3188 3189 3188 3189 3190 3190 3190 3190 3190 3191 3191 3190 3191 3191
3196 3196 3197 3198 3197 3196 3196 3195 3195 3194 3194 3192 3192 3191 3189 3188 3187 3186 3186 3187 3186 3184 3181 3181 3179 3177 3179 3183 3184 3185 3188 3185 3184 3185 3187 3187 3188 3189 3190 3190 3190 3190 3191
3193 3192 3192 3193 3193 3193 3193 3193 3191 3190 3189 3188 3187 3186 3185 3184 3185 3183 3182 3181 3180 3180 3178 3178 3176 3175 3177 3177 3179 3177 3184 3181 3179 3180 3183 3183 3185 3186 3188 3188 3188 3190 3191
3188 3187 3186 3187 3188 3188 3189 3189 3188 3186 3185 3184 3183 3181 3180 3180 3179 3178 3176 3175 3173 3173 3172 3172 3171 3170 3171 3173 3172 3173 3174 3175 3173 3177 3177 3179 3180 3183 3185 3186 3187 3188 3190
3187 3185 3182 3180 3181 3181 3182 3183 3184 3182 3181 3180 3178 3177 3176 3175 3174 3173 3171 3169 3168 3166 3166 3167 3166 3166 3165 3166 3166 3166 3166 3167 3167 3165 3174 3174 3176 3179 3180 3183 3185 3186 3187
3180 3182 3179 3177 3176 3175 3174 3174 3175 3176 3175 3174 3173 3172 3170 3170 3169 3168 3167 3165 3163 3159 3158 3161 3158 3158 3157 3156 3159 3162 3162 3161 3162 3163 3164 3167 3172 3174 3176 3179 3182 3184 3185
3177 3176 3174 3171 3170 3169 3167 3166 3166 3167 3167 3166 3165 3165 3164 3163 3162 3162 3161 3160 3157 3154 3149 3149 3147 3148 3148 3149 3152 3154 3155 3156 3154 3157 3159 3159 3162 3167 3170 3172 3175 3179 3180
3171 3169 3167 3164 3161 3160 3160 3158 3158 3157 3157 3157 3157 3159 3157 3154 3154 3154 3153 3151 3149 3146 3141 3139 3137 3136 3137 3140 3143 3144 3145 3144 3142 3147 3152 3152 3153 3158 3161 3165 3168 3171 3173
3163 3161 3159 3157 3154 3153 3151 3149 3149 3148 3147 3148 3150 3145 3151 3146 3144 3144 3142 3140 3138 3137 3133 3129 3128 3126 3127 3130 3131 3133 3135 3136 3137 3139 3142 3146 3149 3151 3156 3157 3160 3164 3165
3155 3153 3150 3149 3147 3146 3145 3142 3141 3141 3139 3139 3140 3140 3141 3136 3134 3134 3133 3130 3127 3126 3123 3119 3119 3118 3116 3117 3119 3121 3126 3126 3128 3132 3135 3140 3143 3146 3148 3151 3154 3156 3157
3145 3143 3140 3140 3139 3138 3137 3136 3134 3134 3132 3131 3131 3130 3130 3128 3126 3126 3124 3123 3117 3117 3113 3111 3112 3112 3108 3090 3106 3115 3116 3117 3120 3126 3130 3134 3138 3141 3143 3145 3147 3149 3150
3134 3132 3130 3128 3127 3127 3127 3127 3126 3125 3125 3123 3123 3123 3122 3121 3120 3117 3116 3116 3114 3111 3107 3106 3107 3108 3109 3109 3109 3114 3117 3118 3120 3123 3126 3129 3131 3134 3137 3139 3140 3142 3143
3124 3120 3118 3115 3113 3112 3114 3115 3115 3114 3115 3114 3116 3115 3114 3113 3111 3108 3107 3108 3108 3105 3104 3104 3103 3105 3107 3108 3109 3111 3113 3116 3117 3119 3122 3124 3126 3128 3129 3130 3132 3134 3135
3110 3107 3104 3102 3100 3100 3100 3102 3103 3104 3103 3103 3106 3106 3106 3104 3104 3102 3102 3103 3101 3100 3101 3101 3101 3102 3103 3104 3105 3107 3110 3112 3113 3115 3116 3119 3121 3122 3123 3124 3126 3127 3127
3094 3091 3090 3088 3086 3087 3088 3090 3092 3093 3093 3094 3096 3097 3097 3097 3097 3097 3098 3098 3098 3097 3097 3097 3097 3097 3099 3100 3102 3104 3106 3109 3111 3113 3114 3114 3117 3117 3118 3119 3120 3120 3120
3080 3077 3074 3074 3073 3074 3076 3078 3080 3081 3082 3085 3087 3088 3090 3090 3091 3091 3093 3093 3094 3095 3095 3095 3096 3097 3098 3098 3100 3102 3104 3106 3108 3110 3110 3111 3113 3114 3114 3114 3114 3115 3115
3065 3062 3061 3059 3059 3061 3065 3067 3069 3071 3072 3076 3079 3081 3083 3084 3086 3087 3089 3089 3090 3092 3093 3093 3093 3094 3095 3096 3097 3100 3102 3103 3106 3107 3107 3108 3109 3109 3108 3108 3109 3109 3108